EW8601 Weather Reports


Display with metric or nautical units.
time (UTC)temp
F
wind
direction
speed
MPH
gust
MPH
rain 1hr
in
rain 24hr
in
rain mn
in
humidity
%
barometer
mb
20191017124615 45 46 13.0 25.0 0.00 0.00 0.00 58 1010.6
20191017123049 45 65 11.0 24.0 0.00 0.00 0.00 58 1010.4
20191017121541 45 58 13.0 23.0 0.00 0.00 0.00 58 1010.4
20191017120020 44 45 13.0 22.0 0.00 0.00 0.00 59 1010.3
20191017114546 44 91 11.0 23.0 0.00 0.00 0.00 60 1010.3
20191017113047 42 38 12.0 24.0 0.00 0.00 0.00 66 1010.2
20191017111506 42 77 12.0 21.0 0.00 0.00 0.00 66 1010.3
20191017110224 41 4 14.0 23.0 0.00 0.00 0.00 66 1010.2
20191017104743 41 55 15.0 28.0 0.00 0.00 0.00 67 1010.0
20191017103149 40 65 16.0 26.0 0.00 0.00 0.00 68 1009.9
20191017101612 39 53 14.0 23.0 0.00 0.00 0.00 71 1009.8
20191017100122 38 70 13.0 23.0 0.00 0.00 0.00 72 1009.8
20191017094649 38 67 15.0 24.0 0.00 0.00 0.00 71 1009.7
20191017093110 38 73 11.0 22.0 0.00 0.00 0.00 71 1009.5
20191017091634 38 43 13.0 21.0 0.00 0.00 0.00 71 1009.3
20191017090204 38 24 13.0 24.0 0.00 0.00 0.00 70 1009.2
20191017084616 38 52 12.0 21.0 0.00 0.00 0.00 70 1009.0
20191017083104 39 62 12.0 21.0 0.00 0.00 0.00 70 1008.9
20191017081555 39 56 14.0 26.0 0.00 0.00 0.00 69 1008.6
20191017080058 39 70 11.0 28.0 0.00 0.00 0.00 69 1008.4
20191017074703 40 65 11.0 21.0 0.00 0.00 0.00 68 1008.5
20191017073048 39 37 11.0 20.0 0.00 0.00 0.00 70 1008.2
20191017071546 38 51 10.0 19.0 0.00 0.00 0.00 72 1008.0
20191017070049 38 59 13.0 22.0 0.00 0.00 0.00 70 1007.9
20191017064557 39 61 14.0 21.0 0.00 0.00 0.00 69 1007.9
20191017063043 39 60 13.0 24.0 0.00 0.00 0.00 69 1007.6
20191017061524 39 63 11.0 19.0 0.00 0.00 0.00 70 1007.7
20191017060035 39 62 14.0 21.0 0.00 0.00 0.00 69 1007.6
20191017054554 39 34 14.0 22.0 0.00 0.00 0.00 69 1007.4
20191017053025 39 66 12.0 20.0 0.00 0.00 0.00 69 1007.3
20191017051512 39 46 10.0 23.0 0.00 0.00 0.00 70 1007.0
20191017050013 39 16 12.0 21.0 0.00 0.00 0.00 70 1007.0
20191017044528 39 1 8.0 23.0 0.00 0.00 0.00 69 1007.1
20191017043003 40 36 10.0 21.0 0.00 0.00 0.00 69 1006.9
20191017041748 40 13 11.0 20.0 0.00 0.00 0.00 69 1006.7
20191017040212 40 53 12.0 20.0 0.00 0.00 0.00 69 1006.6
20191017034620 41 56 9.0 22.0 0.00 0.00 0.00 68 1006.4
20191017033200 41 58 12.0 23.0 0.00 0.00 0.00 66 1006.1
20191017031641 41 53 12.0 23.0 0.00 0.00 0.00 67 1006.2
20191017030158 42 75 10.0 24.0 0.00 0.00 0.00 66 1006.3
20191017024613 42 40 11.0 26.0 0.00 0.00 0.00 65 1006.1
20191017023116 41 65 8.0 20.0 0.00 0.00 0.00 67 1006.1
20191017021636 42 79 8.0 25.0 0.00 0.00 0.00 66 1006.2
20191017020146 41 64 13.0 23.0 0.00 0.00 0.00 67 1006.0
20191017014641 41 73 8.0 20.0 0.00 0.00 0.00 67 1006.4
20191017013108 41 79 11.0 22.0 0.00 0.00 0.00 68 1006.2
20191017011617 42 74 12.0 24.0 0.00 0.00 0.00 67 1005.8
20191017010137 42 84 14.0 24.0 0.00 0.00 0.00 66 1005.8
20191017004545 43 43 14.0 23.0 0.00 0.00 0.00 65 1005.9
20191017003059 42 54 13.0 25.0 0.00 0.00 0.00 66 1005.8
20191017001545 42 59 15.0 26.0 0.00 0.00 0.00 67 1005.7
20191017000139 42 90 12.0 22.0 0.00 0.00 0.00 70 1005.8
20191016234527 42 56 15.0 26.0 0.00 0.00 0.00 69 1005.5
20191016233031 42 52 15.0 23.0 0.00 0.00 0.00 69 1005.0
20191016231550 42 48 14.0 24.0 0.00 0.00 0.00 69 1005.1
20191016230020 42 36 13.0 24.0 0.00 0.00 0.00 69 1004.9
20191016224518 42 52 12.0 23.0 0.00 0.00 0.00 69 1004.6
20191016223013 42 51 13.0 23.0 0.00 0.00 0.00 69 1004.5
20191016221521 42 56 11.0 18.0 0.00 0.00 0.00 69 1004.3
20191016220012 43 46 13.0 24.0 0.00 0.00 0.00 68 1004.0
20191016214514 43 17 17.0 27.0 0.00 0.00 0.00 67 1003.8
20191016213023 43 77 15.0 26.0 0.00 0.00 0.00 67 1004.0
20191016211606 43 36 14.0 20.0 0.00 0.00 0.00 67 1003.9
20191016210217 44 26 13.0 23.0 0.00 0.00 0.00 66 1003.6
20191016204654 43 60 12.0 22.0 0.00 0.00 0.00 68 1003.2
20191016203133 44 20 9.0 16.0 0.00 0.00 0.00 67 1003.2
20191016201630 44 41 11.0 20.0 0.00 0.00 0.00 67 1003.3
20191016200315 44 26 8.0 16.0 0.00 0.00 0.00 67 1003.3
20191016194719 44 11 7.0 18.0 0.00 0.00 0.00 65 1003.2
20191016193132 44 52 9.0 17.0 0.00 0.00 0.00 67 1003.0
20191016191556 44 49 11.0 19.0 0.00 0.00 0.00 68 1003.0
20191016190122 44 65 8.0 16.0 0.00 0.00 0.00 68 1002.8
20191016184621 44 82 11.0 21.0 0.00 0.00 0.00 67 1002.8
20191016183127 45 27 8.0 21.0 0.00 0.00 0.00 67 1002.6
20191016181600 45 56 8.0 20.0 0.00 0.00 0.00 65 1002.7
20191016180109 45 62 9.0 21.0 0.00 0.00 0.00 65 1002.4
20191016174611 46 60 12.0 21.0 0.00 0.00 0.00 65 1002.3
20191016173059 46 53 14.0 20.0 0.00 0.00 0.00 65 1002.2
20191016171605 46 68 11.0 20.0 0.00 0.00 0.00 65 1002.2
20191016170054 46 53 8.0 22.0 0.00 0.00 0.00 65 1002.2
20191016164537 47 44 14.0 22.0 0.00 0.00 0.00 65 1001.7
20191016163040 47 44 13.0 21.0 0.00 0.00 0.00 65 1001.8
20191016161613 47 41 13.0 21.0 0.00 0.00 0.00 65 1001.8
20191016160015 48 51 12.0 21.0 0.00 0.00 0.00 66 1001.7
20191016154527 48 37 13.0 22.0 0.00 0.00 0.00 67 1001.8
20191016153016 48 45 12.0 22.0 0.00 0.00 0.00 66 1001.7
20191016151520 48 35 11.0 22.0 0.00 0.00 0.00 67 1001.9
20191016150005 48 48 9.0 21.0 0.00 0.00 0.00 67 1001.8
20191016144511 49 59 11.0 21.0 0.00 0.00 0.00 66 1001.5
20191016143008 50 48 12.0 25.0 0.00 0.00 0.00 62 1001.4
20191016141509 50 27 14.0 26.0 0.00 0.00 0.00 62 1001.2
20191016140002 49 67 15.0 26.0 0.00 0.00 0.00 63 1001.3
20191016134501 49 53 16.0 27.0 0.00 0.00 0.00 65 1001.3
20191016133208 49 73 19.0 31.0 0.00 0.00 0.00 65 1001.1
20191016131710 49 75 14.0 29.0 0.00 0.00 0.00 66 1001.2
20191016130213 50 58 16.0 26.0 0.00 0.00 0.00 65 1001.6